Location: Bratsk-Energetik
(56.3300°N, 101.7600°E)
Time: 13:21:04
(UTC+08:00)

ISS - Pass Details

Date: 29 May 2017
Orbit: 401 x 408 km, 51.6° (Epoch: 27 June)

Event Time Altitude Azimuth Distance (km) Brightness Sun altitude
Rises 02:10:36 0° 271° (W) 2,338 -0.1 -11.1°
Reaches altitude 10° 02:13:15 10° 249° (WSW) 1,472 -1.3 -11.0°
Enters shadow 02:14:46 15° 222° (SW) 1,197 -2.0 -10.9°
